Flag for U.S.A. Weather past 2 weeks in Worcester, Massachusetts, U.S.A.

Now
63 °F

Passing clouds.


Feels Like: 63 °F
Forecast: 64 / 81 °F
Wind: 14 mph from Southwest

Location: Worcester Regional Airport

Current Time: Aug 31, 2014 at 1:09:57 AM

Latest Report: Aug 30, 2014 at 11:54 PM


Visibility: 10 mi

Pressure: 30.14 "Hg

Humidity: 93%

Dew point: 61 °F

Location of WorcesterLocation

Historic Weather in Worcester — Graph

°F

Worcester temperature yesterday

Maximum temperature yesterday: 72 °F (at 3:54 PM)
Minimum temperature yesterday: 54 °F (at 5:54 AM)
Average temperature yesterday: 63 °F

Past Weeks' High & Low Weather Summary

 TemperatureHumidityPressure
High83 °F (Aug 25, 1:54 PM)100% (Aug 22, 1:54 AM)30.31 "Hg (Aug 22, 1:54 AM)
Low54 °F (Aug 16, 4:54 AM)37% (Aug 26, 3:54 PM)29.81 "Hg (Aug 17, 2:54 PM)
Average66 °F70%30.04 "Hg
* Reported Aug 15 11:54 PM — Aug 30 11:54 PM, Worcester, Weather by CustomWeather, © 2014

Note: Actual official high and low records may vary slightly from our data, if they occured in-between our weather recording intervals... More about our weather records

Advertising

Worcester weather history for previous 24 hours

 ConditionsComfort  
Time TempWeatherWind HumidityBarometerVisibility
11:54 PM
Aug 30
63 °FPassing clouds.14 mph93%30.14 "Hg10 mi
10:54 PM63 °FClear.12 mph90%30.16 "Hg10 mi
9:54 PM63 °FClear.13 mph87%30.17 "Hg10 mi
8:54 PM64 °FClear.9 mph84%30.17 "Hg10 mi
7:54 PM66 °FPartly sunny.9 mph78%30.17 "Hg10 mi
6:54 PM68 °FSunny.10 mph70%30.17 "Hg10 mi
5:54 PM70 °FScattered clouds.10 mph64%30.18 "Hg10 mi
4:54 PM71 °FPartly sunny.13 mph59%30.19 "Hg10 mi
3:54 PM72 °FPartly sunny.13 mph55%30.20 "Hg10 mi
2:54 PM71 °FPartly sunny.8 mph57%30.22 "Hg10 mi
1:54 PM70 °FPassing clouds.13 mph55%30.24 "Hg10 mi
12:54 PM70 °FSunny.16 mph55%30.26 "Hg10 mi
11:54 AM69 °FPassing clouds.13 mph57%30.28 "Hg10 mi
10:54 AM67 °FScattered clouds.9 mph66%30.29 "Hg10 mi
9:54 AM64 °FScattered clouds.13 mph73%30.30 "Hg10 mi
9:01 AM62 °FPartly sunny.10 mph83%30.31 "Hg10 mi
7:54 AM60 °FPartly sunny.9 mph90%30.30 "Hg10 mi
6:54 AM56 °FClear.8 mph97%30.31 "Hg10 mi
5:54 AM54 °FPassing clouds.8 mph97%30.30 "Hg10 mi
4:54 AM56 °FClear.8 mph93%30.29 "Hg10 mi
4:02 AM56 °FPassing clouds.8 mph97%30.29 "Hg10 mi
3:54 AM56 °FPassing clouds.8 mph97%30.29 "Hg10 mi
2:54 AM56 °FClear.7 mph93%30.29 "Hg10 mi
1:54 AM56 °FClear.7 mph93%30.29 "Hg10 mi
Weather by CustomWeather, © 2014

See weather overviewHow to use our weather pages